FLOCK 2E'-18 (41769 NORAD) Tracking and Keplerian Element Data

This shows tracking and keplerian element data for the satellite.

Feedback or suggestion? Click here.




ElementValue
Catalog41769
NameFLOCK 2E'-18
Epoch Orbit12271
Epoch Day311.16413517
Epoch Year2018
RAAN314.363
Inclination51.5984
Eccentricity0.0006556
Argument of Perigee347.8382
Mean Anonmoly12.0272
Mean Motion16.44264389
Decay Rate0.17547955
L11 41769U 98067KM 18311.16413517 .17547955 12625-4 58790-3 0 9994
L22 41769 51.5984 314.3630 0006556 347.8382 12.0272 16.44264389122712



Live tracking and technical data element details for FLOCK 2E'-18 (NORAD 41769). FLOCK 2E'-18 can be tracked NOW for your location showing map with azimuth and elevation plus other details from your city location.







IsCatalogInMostPopularTable: catalog: 41769, numindb: 733
Update: records affected: 1



GetName: 41769 FLOCK 2E'-18

Hit Count: updated at: Fri, 19 Apr 2024 11:12:55 GMT